• In Hungary
  • List of Countries
  • For 7 days
  • Water Temperature
  • Satellite Maps
  • Weather Map
  • News
  • Weather Widgets
  • user-avatar
    Login

    Hourly Weather Klagenfurt

    Today, 22 August, Tuesday

    Time Temperature Precipitation Wind Pressure Humidity
    00:00 +9°C° 0 mm 1 mps 694 mmHg 82%
    01:00 +9°C° 0 mm 1 mps 694 mmHg 84%
    02:00 +8°C° 0 mm 1 mps 694 mmHg 84%
    03:00 +8°C° 0 mm 1 mps 693 mmHg 85%
    04:00 +8°C° 0 mm 1 mps 693 mmHg 86%
    05:00 +9°C° 0 mm 1 mps 694 mmHg 81%
    06:00 +11°C° 0 mm 1 mps 694 mmHg 76%
    07:00 +11°C° 0 mm 0 mps 694 mmHg 71%
    08:00 +14°C° 0 mm 0 mps 694 mmHg 62%
    09:00 +18°C° 0 mm 1 mps 695 mmHg 53%
    10:00 +21°C° 0 mm 1 mps 695 mmHg 44%
    11:00 +22°C° 0 mm 1 mps 695 mmHg 42%
    12:00 +23°C° 0 mm 1 mps 694 mmHg 40%
    13:00 +24°C° 0 mm 1 mps 694 mmHg 37%
    14:00 +24°C° 0 mm 1 mps 694 mmHg 39%
    15:00 +23°C° 0 mm 1 mps 693 mmHg 40%
    16:00 +23°C° 0 mm 1 mps 693 mmHg 41%
    17:00 +21°C° 0 mm 1 mps 692 mmHg 51%
    18:00 +18°C° 0 mm 1 mps 692 mmHg 62%
    19:00 +15°C° 0 mm 1 mps 691 mmHg 72%
    20:00 +14°C° 0 mm 1 mps 691 mmHg 75%
    21:00 +13°C° 0 mm 1 mps 692 mmHg 79%
    22:00 +12°C° 0 mm 1 mps 692 mmHg 82%
    23:00 +12°C° 0 mm 1 mps 692 mmHg 83%

    Tomorrow, 23 August, Wednesday

    Time Temperature Precipitation Wind Pressure Humidity
    00:00 +11°C° 0 mm 1 mps 691 mmHg 84%
    01:00 +11°C° 0 mm 1 mps 691 mmHg 85%
    02:00 +11°C° 0 mm 1 mps 691 mmHg 85%
    03:00 +11°C° 0 mm 1 mps 691 mmHg 85%
    04:00 +10°C° 0 mm 1 mps 691 mmHg 86%
    05:00 +12°C° 0 mm 1 mps 691 mmHg 81%
    06:00 +13°C° 0 mm 1 mps 692 mmHg 77%
    07:00 +13°C° 0 mm 0 mps 692 mmHg 73%
    08:00 +18°C° 0 mm 1 mps 693 mmHg 65%
    09:00 +20°C° 0 mm 1 mps 693 mmHg 56%
    10:00 +22°C° 0 mm 1 mps 694 mmHg 48%
    11:00 +23°C° 0 mm 1 mps 694 mmHg 46%
    12:00 +24°C° 0 mm 1 mps 694 mmHg 44%
    13:00 +25°C° 0 mm 1 mps 693 mmHg 42%
    14:00 +25°C° 0 mm 1 mps 693 mmHg 44%
    15:00 +25°C° 0 mm 1 mps 693 mmHg 45%
    16:00 +25°C° 0 mm 1 mps 693 mmHg 47%
    17:00 +22°C° 0 mm 1 mps 692 mmHg 56%
    18:00 +20°C° 0 mm 1 mps 692 mmHg 66%
    19:00 +18°C° 0 mm 1 mps 692 mmHg 75%
    20:00 +16°C° 0 mm 1 mps 692 mmHg 77%
    21:00 +15°C° 0 mm 1 mps 692 mmHg 79%
    22:00 +15°C° 0 mm 1 mps 692 mmHg 81%
    23:00 +14°C° 0 mm 1 mps 692 mmHg 82%

    Day after tomorrow, 24 August, Thursday

    Time Temperature Precipitation Wind Pressure Humidity
    00:00 +14°C° 0 mm 1 mps 692 mmHg 83%
    01:00 +13°C° 0 mm 1 mps 692 mmHg 84%
    02:00 +13°C° 0 mm 1 mps 692 mmHg 84%
    03:00 +13°C° 0 mm 1 mps 692 mmHg 85%
    04:00 +13°C° 0 mm 1 mps 692 mmHg 85%
    05:00 +14°C° 0 mm 1 mps 692 mmHg 81%
    06:00 +15°C° 0 mm 1 mps 693 mmHg 77%
    07:00 +16°C° 0 mm 0 mps 693 mmHg 73%
    08:00 +19°C° 0 mm 0 mps 694 mmHg 64%
    09:00 +22°C° 0 mm 0 mps 694 mmHg 55%
    10:00 +25°C° 0 mm 0 mps 695 mmHg 46%
    11:00 +28°C° 0 mm 1 mps 695 mmHg 43%
    12:00 +28°C° 0 mm 1 mps 695 mmHg 41%
    13:00 +29°C° 0 mm 1 mps 695 mmHg 39%
    14:00 +28°C° 0 mm 1 mps 695 mmHg 41%
    15:00 +28°C° 0 mm 1 mps 694 mmHg 44%
    16:00 +27°C° 0 mm 1 mps 694 mmHg 46%
    17:00 +25°C° 0 mm 1 mps 693 mmHg 57%
    18:00 +22°C° 0 mm 1 mps 693 mmHg 67%
    19:00 +20°C° 0 mm 1 mps 693 mmHg 77%
    20:00 +19°C° 0.1 mm 1 mps 693 mmHg 81%
    21:00 +18°C° 0.1 mm 1 mps 693 mmHg 84%
    22:00 +16°C° 0.1 mm 1 mps 693 mmHg 87%
    23:00 +16°C° 0 mm 1 mps 693 mmHg 88%

    25 August, Friday

    Time Temperature Precipitation Wind Pressure Humidity
    00:00 +15°C° 0 mm 1 mps 693 mmHg 89%
    01:00 +15°C° 0 mm 1 mps 693 mmHg 89%
    02:00 +15°C° 0 mm 1 mps 692 mmHg 89%
    03:00 +14°C° 0 mm 1 mps 692 mmHg 89%
    04:00 +14°C° 0 mm 1 mps 692 mmHg 89%
    05:00 +15°C° 0 mm 1 mps 692 mmHg 84%
    06:00 +16°C° 0 mm 1 mps 693 mmHg 80%
    07:00 +17°C° 0 mm 0 mps 693 mmHg 76%
    08:00 +21°C° 0 mm 1 mps 694 mmHg 66%
    09:00 +24°C° 0 mm 1 mps 694 mmHg 56%
    10:00 +27°C° 0 mm 1 mps 695 mmHg 46%
    11:00 +28°C° 0 mm 1 mps 694 mmHg 44%
    12:00 +28°C° 0 mm 1 mps 694 mmHg 42%
    13:00 +29°C° 0 mm 2 mps 694 mmHg 40%
    14:00 +29°C° 0.1 mm 2 mps 694 mmHg 42%
    15:00 +28°C° 0.1 mm 2 mps 694 mmHg 44%
    16:00 +28°C° 0.1 mm 2 mps 693 mmHg 47%
    17:00 +25°C° 0.1 mm 1 mps 693 mmHg 56%
    18:00 +23°C° 0.1 mm 1 mps 693 mmHg 66%
    19:00 +21°C° 0.1 mm 1 mps 692 mmHg 75%
    20:00 +20°C° 0 mm 1 mps 692 mmHg 78%
    21:00 +19°C° 0 mm 1 mps 692 mmHg 81%
    22:00 +18°C° 0 mm 1 mps 692 mmHg 84%
    23:00 +18°C° 0 mm 1 mps 692 mmHg 85%

    26 August, Saturday

    Time Temperature Precipitation Wind Pressure Humidity
    00:00 +16°C° 0 mm 1 mps 692 mmHg 86%
    01:00 +16°C° 0 mm 1 mps 692 mmHg 87%
    02:00 +16°C° 0 mm 1 mps 692 mmHg 87%
    03:00 +16°C° 0 mm 1 mps 692 mmHg 87%
    04:00 +15°C° 0 mm 1 mps 691 mmHg 88%
    05:00 +16°C° 0 mm 1 mps 692 mmHg 84%
    06:00 +19°C° 0 mm 1 mps 692 mmHg 80%
    07:00 +20°C° 0 mm 1 mps 692 mmHg 76%
    08:00 +21°C° 0 mm 0 mps 693 mmHg 66%
    09:00 +24°C° 0 mm 0 mps 693 mmHg 56%
    10:00 +27°C° 0 mm 0 mps 694 mmHg 45%
    11:00 +29°C° 0 mm 1 mps 694 mmHg 43%
    12:00 +30°C° 0 mm 1 mps 694 mmHg 40%
    13:00 +31°C° 0 mm 1 mps 693 mmHg 37%
    14:00 +31°C° 0 mm 1 mps 693 mmHg 39%
    15:00 +30°C° 0 mm 1 mps 693 mmHg 41%
    16:00 +29°C° 0 mm 1 mps 693 mmHg 43%
    17:00 +27°C° 0 mm 1 mps 692 mmHg 53%
    18:00 +24°C° 0 mm 1 mps 692 mmHg 63%
    19:00 +21°C° 0 mm 1 mps 691 mmHg 74%
    20:00 +21°C° 0 mm 1 mps 691 mmHg 77%
    21:00 +20°C° 0 mm 1 mps 691 mmHg 80%
    22:00 +19°C° 0 mm 1 mps 691 mmHg 83%
    23:00 +19°C° 0 mm 1 mps 691 mmHg 84%

    27 August, Sunday

    Time Temperature Precipitation Wind Pressure Humidity
    00:00 +18°C° 0 mm 1 mps 691 mmHg 85%
    01:00 +18°C° 0 mm 1 mps 691 mmHg 86%
    02:00 +16°C° 0 mm 1 mps 691 mmHg 87%
    03:00 +16°C° 0 mm 1 mps 690 mmHg 87%
    04:00 +16°C° 0 mm 1 mps 690 mmHg 88%
    05:00 +18°C° 0 mm 1 mps 691 mmHg 84%
    06:00 +17°C° 0 mm 0 mps 691 mmHg 80%
    07:00 +18°C° 0 mm 0 mps 691 mmHg 76%
    08:00 +23°C° 0 mm 1 mps 692 mmHg 66%
    09:00 +25°C° 0 mm 1 mps 692 mmHg 57%
    10:00 +28°C° 0 mm 1 mps 692 mmHg 47%
    11:00 +29°C° 0 mm 1 mps 692 mmHg 44%
    12:00 +30°C° 0 mm 2 mps 692 mmHg 41%
    13:00 +30°C° 0 mm 2 mps 692 mmHg 37%
    14:00 +30°C° 0 mm 2 mps 691 mmHg 38%
    15:00 +30°C° 0 mm 2 mps 691 mmHg 38%
    16:00 +29°C° 0 mm 2 mps 691 mmHg 38%
    17:00 +27°C° 0 mm 2 mps 690 mmHg 49%
    18:00 +24°C° 0 mm 1 mps 690 mmHg 59%
    19:00 +21°C° 0 mm 1 mps 689 mmHg 69%
    20:00 +20°C° 0 mm 1 mps 689 mmHg 72%
    21:00 +19°C° 0 mm 1 mps 689 mmHg 74%
    22:00 +18°C° 0 mm 1 mps 689 mmHg 77%
    23:00 +18°C° 0 mm 1 mps 689 mmHg 77%
    Show more